Location: Dompnac
(44.5644°N, 4.1026°E)
Time: 11:34:50
(UTC+00:00)

NOSS 8 (H) - Pass Details

Date: 19 September 2020
Orbit: 384 x 1790 km, 63.3° (Epoch: 30 October)

Event Time Altitude Azimuth Distance (km) Brightness Sun altitude
Rises 18:17:00 0° 216° (SW) 2,514 8.6 -6.3°
Reaches altitude 10° 18:19:14 10° 216° (SW) 1,530 7.5 -6.7°
Maximum altitude 18:22:28 89° 147° (SSE) 399 4.1 -7.3°
Drops below altitude 10° 18:25:28 10° 38° (NE) 1,415 6.6 -7.8°
Sets 18:27:29 0° 38° (NE) 2,299 7.7 -8.2°
